STARLINK-30054 (55706 NORAD) Tracking and Keplerian Element Data

This shows tracking and keplerian element data for the satellite.

Feedback or suggestion? Click here.




ElementValue
Catalog55706
NameSTARLINK-30054
Epoch Orbit130
Epoch Day62.91667824
Epoch Year2023
RAAN259.611
Inclination43.0104
Eccentricity0.0001632
Argument of Perigee281.332
Mean Anonmoly180.7285
Mean Motion15.65938205
Decay Rate-0.0079714
L11 55706U 23026M 23062.91667824 -.00797140 00000+0 -83670-2 0 9997
L22 55706 43.0104 259.6110 0001632 281.3320 180.7285 15.65938205 1301



Live tracking and technical data element details for STARLINK-30054 (NORAD 55706). STARLINK-30054 can be tracked NOW for your location showing map with azimuth and elevation plus other details from your city location.







IsCatalogInMostPopularTable: catalog: 55706, numindb: 1
Update: records affected: 1



GetName: 55706 STARLINK-30054

Hit Count: updated at: Wed, 22 Mar 2023 15:10:24 GMT